Wind_Speed
7 7 8 7 5 6 3 2 1 4 5 7 9 10 9 11 10 9 7 7 11 11 12 7 7 9 12 12 6 5 6 11 17 20 28 18 40 40 31 23 32 29 27
6 6 5 5 4 3 1 2 3 4 7 9 9 10 8 8 8 9 10 10 12 11 8 6 7 10 12 12 6 5 6 8 15 17 16 35 29 24 24 25 32 25 26
4 4 3 2 1 1 2 3 4 5 6 8 9 9 8 7 7 8 9 9 10 12 11 10 5 9 11 10 4 7 7 15 19 24 34 30 26 24 24 29 29 26 23
4 3 2 2 3 3 4 3 4 5 7 8 7 7 6 7 7 8 10 9 10 12 12 11 7 7 7 9 11 6 11 14 25 32 29 22 23 30 39 29 27 21 16
5 3 3 6 5 4 5 7 6 4 6 7 9 8 7 6 8 9 8 10 9 11 11 11 9 6 7 7 10 6 15 18 17 31 23 28 28 33 34 30 26 22 16
7 6 6 8 6 4 4 5 5 5 5 8 8 9 8 9 10 10 13 11 9 9 9 10 9 7 6 7 10 8 12 22 20 29 24 32 35 31 24 22 15 19 12
9 9 9 8 8 5 5 1 5 4 4 8 8 9 12 12 12 11 12 11 9 7 7 7 7 7 9 10 10 8 11 19 18 24 27 33 31 30 22 21 15 11 11
10 9 9 8 8 8 7 5 4 9 8 4 5 7 11 16 15 14 14 12 9 7 6 8 7 10 10 10 6 12 19 20 19 28 20 25 24 22 22 13 12 13 13
11 10 9 8 7 7 6 4 3 8 10 8 7 4 12 19 19 16 14 10 8 7 9 11 9 13 7 9 17 22 23 24 29 28 27 26 23 21 16 14 15 12 9
13 11 10 9 8 8 7 7 8 10 8 7 8 7 14 20 22 15 13 11 8 8 10 9 12 11 13 20 22 25 27 28 32 37 35 27 23 20 20 18 14 9 7
14 12 11 10 9 9 8 8 8 7 4 6 11 14 15 16 17 18 10 12 11 15 10 8 22 22 26 27 28 24 25 24 24 22 23 25 24 22 19 14 10 7 4
13 14 12 11 10 10 10 9 8 8 8 10 11 15 16 16 19 20 15 14 19 18 21 17 22 27 23 20 22 23 21 23 25 26 25 22 19 16 12 10 8 6 6
14 14 14 13 12 11 11 10 10 9 10 11 12 12 16 21 23 21 21 23 23 22 21 23 24 22 21 22 23 23 25 25 24 23 21 19 17 14 12 10 9 9 10
13 14 15 15 14 13 13 12 12 11 11 12 12 14 15 16 18 18 17 20 22 21 20 19 18 19 20 22 24 26 26 26 24 21 19 17 15 13 11 10 10 12 15
14 13 14 15 15 14 13 12 13 13 13 13 13 13 13 14 15 15 14 14 14 15 15 14 15 17 20 21 23 23 24 22 20 21 19 16 14 13 13 13 15 17 19
15 15 15 15 15 16 16 15 15 14 15 15 15 15 15 16 15 14 15 15 15 14 14 14 15 18 19 19 20 22 22 20 19 19 18 16 16 17 17 17 18 19 21
17 14 16 16 16 16 17 17 17 16 16 16 16 15 14 15 14 15 15 15 15 15 15 15 15 16 16 17 18 19 20 20 20 21 21 20 19 20 19 20 21 23 24
13 17 16 15 17 17 17 17 18 17 16 15 16 16 15 15 15 16 15 15 14 14 15 15 16 16 17 17 18 20 22 23 23 23 23 23 22 23 23 24 24 27 29
16 17 21 19 17 20 19 20 19 18 18 19 20 20 19 18 18 17 16 15 14 15 15 16 16 17 18 20 21 23 25 26 26 26 26 25 25 26 28 28 29 28 28
20 18 19 22 21 20 22 23 22 22 21 21 21 20 20 19 18 17 17 17 17 17 17 18 18 19 19 20 22 24 25 28 29 29 29 30 31 31 31 32 34 34 33
22 23 21 25 25 25 22 22 23 23 23 22 21 21 19 18 18 19 19 19 20 20 21 21 22 23 23 23 24 24 26 28 28 29 31 32 33 34 34 36 37 41 39
26 27 25 25 27 27 28 25 22 21 21 21 21 22 20 21 22 21 21 20 20 21 23 25 26 27 27 27 27 28 29 30 31 30 31 33 35 35 36 38 41 42 42
30 27 26 28 25 23 23 23 24 24 23 23 23 23 21 22 21 20 20 21 22 23 24 25 27 28 29 29 30 31 31 32 33 34 35 36 37 38 39 41 43 41 40
36 31 28 30 28 26 24 22 22 22 23 23 24 24 24 23 24 23 23 22 22 23 24 27 29 29 30 31 32 32 33 34 35 37 37 38 40 41 41 43 43 42 45
42 37 34 33 36 33 32 30 30 30 30 32 32 33 33 34 33 32 31 30 29 29 29 29 28 27 28 30 32 32 33 33 36 37 39 39 40 41 42 41 42 44 50
48 45 40 38 38 40 39 37 34 34 34 33 33 33 33 33 33 34 35 35 34 33 31 31 30 30 30 30 29 27 29 30 31 33 34 36 38 39 38 41 43 47 48
Wind_Direction
281 297 290 285 290 332 329 318 259 162 149 154 151 151 155 161 165 170 178 171 165 165 168 158 131 152 153 162 167 162 184 210 219 224 257 199 193 180 160 173 183 176 168
274 282 275 267 305 344 58 111 118 155 167 163 160 151 152 157 164 175 169 163 161 168 169 164 161 154 164 164 142 73 162 183 190 184 193 178 161 159 159 172 169 165 154
263 255 246 248 318 22 142 151 134 165 179 170 167 161 158 159 164 170 175 181 179 176 170 169 163 156 183 193 173 175 115 136 151 157 161 168 160 159 161 161 163 159 167
222 208 209 158 153 89 85 139 151 151 181 179 175 170 162 169 185 182 177 175 184 176 177 170 150 147 159 175 154 147 151 164 150 153 160 156 157 162 166 162 151 159 148
174 160 137 149 162 127 78 104 118 127 169 179 178 178 162 156 175 176 171 152 160 165 166 178 174 152 149 174 171 130 165 150 153 162 164 167 167 161 157 155 159 149 138
162 139 128 123 140 149 134 107 106 86 165 181 178 179 181 167 162 154 151 147 157 153 161 176 182 185 163 148 157 140 144 157 160 179 162 160 167 155 155 162 153 147 160
164 147 135 113 102 97 152 108 50 71 117 162 175 174 168 171 162 155 156 156 151 151 162 156 163 177 172 165 157 142 147 162 163 176 162 168 170 171 156 150 130 147 144
166 157 143 128 110 108 117 128 81 68 90 127 192 217 188 182 172 163 162 154 144 140 167 177 155 178 162 147 173 151 150 170 153 170 157 148 155 152 151 146 155 152 147
168 158 148 140 132 127 124 120 99 111 95 82 59 19 196 189 179 179 179 181 180 171 158 161 165 182 144 146 149 147 148 137 148 144 159 140 140 152 163 160 149 152 146
172 167 157 148 142 141 131 125 132 127 93 56 49 54 142 173 186 174 176 180 187 176 148 162 173 175 141 138 132 127 126 128 136 135 141 149 155 155 152 157 163 162 162
177 179 178 165 154 141 139 135 137 144 137 82 64 83 114 141 164 172 182 173 176 167 143 129 140 135 137 136 135 136 134 134 137 143 146 147 148 152 161 165 165 169 209
180 180 190 182 166 154 142 140 133 123 116 114 100 94 105 134 137 150 135 115 130 149 155 137 147 148 143 147 143 138 145 149 149 149 149 150 152 155 161 172 191 223 266
184 178 183 186 178 167 157 148 143 136 131 123 122 116 112 113 139 144 135 121 129 134 144 145 145 149 150 151 155 154 152 152 153 155 158 161 165 174 188 204 224 252 275
191 185 182 184 183 176 172 164 157 151 144 140 140 140 137 137 141 147 147 143 142 150 155 156 158 161 163 162 162 160 162 164 166 170 175 181 189 198 211 231 256 278 287
201 194 190 188 185 183 180 179 175 168 161 158 152 149 146 148 150 151 154 157 156 158 161 162 163 165 167 168 171 173 177 181 181 185 191 199 211 226 242 256 265 273 285
206 204 202 201 196 192 187 188 190 186 181 176 169 167 166 160 158 159 161 164 169 174 174 174 174 175 178 181 184 187 189 192 196 203 213 226 240 247 252 260 272 284 292
214 207 210 210 209 207 199 196 196 198 197 194 193 190 182 175 176 175 175 178 180 181 184 188 189 190 193 197 201 204 206 209 213 220 228 238 249 254 259 267 276 284 287
224 215 211 215 216 216 212 207 204 203 201 202 205 208 205 202 196 193 195 196 196 197 201 204 208 212 214 217 218 217 219 222 224 229 237 247 253 259 264 272 279 281 280
237 227 219 215 214 215 218 215 211 209 206 206 208 210 212 212 215 216 215 212 210 211 214 217 221 225 228 230 230 229 230 232 234 239 245 251 257 263 269 275 279 284 286
243 242 234 226 222 219 218 218 216 213 212 214 217 220 222 219 218 220 221 221 222 223 224 226 229 232 235 237 239 240 241 242 243 246 252 256 260 265 270 275 279 282 285
247 247 242 232 227 226 227 226 224 222 219 218 221 225 228 230 230 229 227 227 225 223 225 228 232 235 238 241 244 247 249 250 251 254 256 260 265 268 270 274 276 282 282
242 249 245 240 232 228 227 226 224 222 222 222 223 227 226 231 236 237 234 232 232 232 232 233 235 239 241 242 244 247 250 254 258 258 261 263 265 268 270 272 275 288 291
236 245 244 239 231 226 222 221 223 228 229 230 230 233 233 233 237 240 243 241 237 236 237 239 241 243 245 251 254 255 256 258 261 263 262 264 267 269 271 272 274 282 289
229 238 242 238 235 227 224 225 225 228 230 234 237 240 245 242 244 245 247 246 245 246 244 244 246 248 251 254 257 260 262 262 265 267 268 267 268 271 271 274 277 281 278
224 231 235 232 233 236 236 238 239 244 245 247 247 249 252 257 254 254 254 255 254 255 256 258 257 255 256 258 261 264 266 269 268 269 270 271 273 274 276 278 278 282 277
221 227 230 232 230 234 237 241 243 246 248 247 246 249 252 254 257 257 255 257 259 259 260 261 261 262 264 266 269 271 276 276 272 272 273 272 273 276 278 276 279 282 282
Height
3057 3057 3055 3055 3054 3052 3051 3050 3049 3049 3050 3050 3051 3052 3053 3054 3056 3058 3059 3060 3062 3065 3067 3069 3070 3071 3072 3075 3075 3075 3076 3077 3079 3083 3086 3089 3092 3100 3106 3114 3120 3126 3133
3055 3055 3054 3054 3053 3052 3050 3050 3050 3050 3051 3051 3053 3054 3055 3056 3057 3058 3059 3060 3063 3065 3067 3069 3070 3072 3075 3076 3077 3076 3075 3075 3079 3083 3083 3088 3097 3104 3111 3116 3122 3129 3135
3055 3054 3054 3053 3052 3051 3050 3050 3050 3051 3052 3053 3054 3055 3056 3056 3057 3059 3060 3062 3064 3066 3068 3070 3071 3072 3075 3077 3077 3077 3079 3079 3082 3083 3090 3097 3103 3109 3114 3120 3126 3132 3137
3054 3053 3053 3052 3052 3052 3051 3051 3051 3051 3052 3054 3055 3056 3057 3058 3058 3060 3062 3064 3065 3067 3070 3072 3074 3075 3076 3077 3079 3080 3082 3083 3086 3090 3096 3100 3106 3112 3117 3123 3129 3134 3138
3053 3053 3053 3053 3053 3053 3053 3052 3052 3052 3053 3054 3055 3057 3058 3059 3060 3061 3063 3065 3067 3070 3072 3074 3076 3078 3079 3079 3081 3083 3085 3086 3088 3093 3098 3103 3109 3114 3120 3125 3130 3135 3140
3054 3054 3053 3053 3053 3054 3054 3054 3054 3053 3053 3054 3055 3057 3059 3060 3062 3063 3065 3067 3069 3072 3074 3077 3078 3079 3081 3082 3084 3085 3086 3089 3091 3096 3101 3107 3113 3118 3122 3128 3133 3137 3142
3054 3054 3054 3054 3054 3055 3055 3055 3055 3054 3053 3054 3056 3057 3059 3061 3064 3065 3068 3069 3072 3073 3075 3078 3080 3081 3082 3084 3085 3086 3088 3091 3096 3100 3105 3110 3116 3121 3126 3130 3135 3139 3143
3054 3055 3056 3056 3056 3056 3057 3057 3057 3056 3055 3054 3055 3055 3058 3061 3064 3067 3069 3071 3073 3076 3076 3078 3080 3082 3085 3085 3087 3088 3090 3094 3099 3104 3109 3115 3119 3125 3130 3134 3139 3142 3145
3055 3056 3057 3057 3058 3058 3058 3058 3059 3059 3058 3058 3057 3055 3055 3060 3064 3067 3070 3073 3075 3076 3078 3079 3081 3083 3086 3087 3088 3091 3094 3097 3102 3107 3112 3119 3124 3128 3134 3138 3141 3144 3146
3055 3056 3057 3058 3059 3059 3059 3060 3061 3061 3061 3060 3059 3055 3054 3058 3063 3068 3072 3073 3075 3077 3079 3081 3083 3085 3089 3090 3092 3096 3099 3103 3107 3111 3115 3122 3127 3132 3136 3139 3142 3144 3146
3054 3057 3058 3059 3060 3060 3061 3061 3063 3064 3064 3064 3062 3059 3059 3061 3065 3069 3072 3075 3076 3079 3082 3082 3084 3089 3093 3097 3099 3103 3108 3111 3114 3118 3122 3126 3130 3134 3137 3140 3143 3144 3145
3055 3056 3058 3060 3061 3062 3062 3063 3064 3065 3065 3067 3067 3066 3065 3066 3069 3072 3075 3075 3077 3082 3084 3087 3089 3093 3097 3100 3103 3108 3111 3115 3118 3122 3126 3129 3133 3136 3139 3140 3142 3143 3144
3054 3056 3058 3060 3062 3063 3063 3064 3065 3067 3068 3069 3071 3071 3072 3072 3074 3077 3079 3081 3083 3087 3090 3093 3097 3099 3102 3105 3108 3111 3114 3118 3122 3125 3128 3132 3135 3137 3139 3140 3141 3141 3142
3054 3056 3058 3060 3062 3063 3064 3066 3067 3068 3070 3072 3073 3075 3077 3078 3080 3082 3084 3086 3088 3091 3094 3097 3099 3102 3105 3108 3111 3113 3117 3120 3124 3127 3130 3132 3134 3136 3138 3139 3139 3139 3139
3053 3055 3057 3059 3061 3063 3065 3067 3068 3070 3071 3074 3075 3077 3079 3081 3083 3086 3088 3091 3093 3095 3097 3099 3102 3105 3107 3110 3113 3116 3119 3122 3124 3127 3130 3132 3133 3134 3135 3135 3136 3136 3135
3051 3054 3057 3059 3061 3062 3064 3067 3069 3071 3072 3074 3076 3078 3079 3082 3084 3087 3089 3092 3095 3097 3099 3101 3104 3106 3109 3112 3114 3116 3119 3122 3124 3126 3128 3129 3131 3131 3132 3133 3132 3131 3130
3049 3052 3055 3058 3060 3062 3063 3066 3068 3070 3072 3075 3077 3079 3080 3082 3084 3087 3089 3092 3094 3096 3099 3101 3104 3106 3109 3111 3113 3116 3118 3120 3121 3123 3125 3126 3127 3127 3127 3127 3127 3125 3124
3047 3050 3053 3055 3058 3060 3062 3064 3066 3069 3071 3074 3076 3079 3081 3082 3084 3086 3089 3091 3094 3096 3098 3100 3102 3104 3106 3108 3110 3112 3114 3115 3117 3119 3121 3121 3122 3122 3122 3122 3121 3120 3118
3045 3047 3049 3052 3054 3057 3060 3062 3064 3066 3069 3071 3073 3075 3078 3081 3083 3086 3088 3090 3092 3094 3096 3098 3100 3102 3103 3105 3107 3109 3110 3112 3114 3115 3116 3117 3117 3117 3117 3116 3115 3114 3111
3041 3044 3046 3049 3051 3053 3056 3059 3062 3064 3065 3068 3070 3073 3074 3078 3080 3083 3085 3087 3090 3092 3094 3095 3097 3098 3100 3101 3102 3104 3105 3106 3108 3110 3112 3111 3111 3111 3110 3109 3107 3105 3104
3036 3039 3042 3044 3046 3050 3052 3055 3058 3061 3063 3065 3067 3069 3072 3074 3076 3078 3080 3082 3085 3086 3088 3090 3092 3093 3094 3096 3097 3098 3099 3100 3102 3102 3103 3103 3103 3102 3101 3100 3097 3095 3094
3032 3034 3038 3039 3042 3044 3048 3051 3054 3056 3059 3062 3064 3065 3068 3070 3071 3073 3075 3076 3079 3081 3083 3084 3085 3086 3088 3089 3090 3091 3092 3092 3092 3094 3095 3094 3093 3093 3093 3092 3088 3086 3083
3027 3029 3033 3035 3038 3041 3043 3046 3049 3052 3055 3057 3059 3061 3063 3065 3066 3068 3070 3071 3073 3074 3076 3077 3079 3080 3081 3082 3083 3083 3084 3084 3085 3085 3085 3085 3085 3085 3084 3081 3079 3077 3075
3020 3023 3027 3030 3033 3036 3038 3042 3045 3047 3050 3052 3054 3057 3058 3060 3061 3063 3065 3066 3067 3068 3069 3070 3071 3073 3074 3075 3076 3076 3077 3077 3077 3076 3076 3076 3074 3072 3072 3071 3070 3068 3064
3012 3016 3019 3023 3027 3030 3033 3036 3039 3042 3044 3046 3047 3049 3051 3053 3055 3056 3057 3058 3059 3061 3061 3062 3064 3065 3066 3066 3067 3068 3069 3069 3069 3067 3066 3067 3066 3065 3063 3062 3058 3055 3051
3002 3006 3010 3014 3018 3021 3024 3028 3031 3033 3036 3038 3040 3041 3043 3044 3046 3047 3048 3049 3051 3052 3053 3054 3055 3056 3057 3058 3059 3060 3060 3060 3060 3059 3058 3056 3054 3053 3051 3049 3048 3045 3043